Weather in Dronovka

Russia / Kursk Oblast     51°25′24″N   34°18′20″E
temp.,
°C
wind,
m/s
gust,
m/s
humid.,
%
clouds,
%
prec.,
mm/h
press.,
hPa
HPBL,
m
5 august, thu
thu500:00+17ese335692 0.0 101730
03:00+16se3664100 0.0 101791
06:00+17s31057100 0.0 1016261
09:00+18sse3758100 0.0 1015201
12:00+26ssw4642100 0.0 10141437
15:00+28sw4740100 0.0 10132420
18:00+26s584632 0.0 1012831
21:00+19ese1177100 0.5 101216
6 august, fri
fri600:00+20ese497439 0.1 1010136
03:00+20s4125868 0.1 1010299
06:00+20sse5135551 0.0 1009295
09:00+24sse594799 0.0 1008411
12:00+29sse6737100 0.0 10081124
15:00+32s68299 0.0 10052066
18:00+30ssw363895 0.0 1005187
21:00+21nnw9157163 0.0 1006318
7 august, sat
sat700:00+18nne3784100 0.0 1006129
03:00+17nnw3487100 0.1 100755
06:00+18e3487100 1.0 100679
09:00+22sse4877100 2.4 1007435
12:00+26ssw2355100 0.1 10071075
15:00+29nw124877 0.1 10071635
18:00+25nw5767100 0.2 1008668
21:00+19nw41090100 1.5 1010275
8 august, sun
sun800:00+17nnw39915 0.3 1012181
03:00+15nnw4109166 0.3 1013198
06:00+14nnw48940 0.0 1014169
09:00+20n57680 0.0 1015516
12:00+25n55402 0.0 10141151
15:00+27n45340 0.0 10141393
18:00+26nne34410 0.0 10151202
21:00+19n33595 0.0 101638
9 august, mon
mon900:00+17nne34625 0.0 101754
03:00+16nne33685 0.0 101728
06:00+15nne33722 0.0 101735
09:00+22ne34520 0.0 1017375
12:00+26nne333878 0.0 10171250
15:00+28n23343 0.0 10161767
18:00+27ne33385 0.0 1015937
21:00+21ene335694 0.0 101620